EWG61X EDDH-LFPG

Flight info

Callsign EWG61X
Flight time 1h 13m
Altitude 36000
Route HABFU1G HABFU Y348 DOMEG DCT IDOSA UN857 TOLVU/N0443F350 DCT RAPOR DCT VEDUS
Aircraft A320/M-SDE3FGHIRWY/LB1

Departure

Time 2026-04-26 09:46
Airport Hamburg Helmut Schmidt Airport (EDDH)

Arrival

Time 2026-04-26 10:59
Airport Charles de Gaulle International Airport (LFPG)
Time Latitude Longitude Altitude Speed Heading
2026-04-26 09:16 53.62885 10.00231 49 ft 0 kts 124°
2026-04-26 09:39 53.62895 10.00207 46 ft 4 kts 127°
2026-04-26 09:40 53.62913 10.00172 48 ft 4 kts 137°
2026-04-26 09:40 53.62934 10.00145 45 ft 4 kts 161°
2026-04-26 09:40 53.62953 10.00143 47 ft 1 kts 212°
2026-04-26 09:43 53.62951 10.00140 47 ft 2 kts 212°
2026-04-26 09:43 53.62917 10.00102 48 ft 8 kts 214°
2026-04-26 09:43 53.62869 10.00037 48 ft 10 kts 231°
2026-04-26 09:43 53.62844 9.99961 48 ft 1 kts 243°
2026-04-26 09:44 53.62844 9.99959 48 ft 0 kts 243°
2026-04-26 09:44 53.62833 9.99920 45 ft 7 kts 244°
2026-04-26 09:45 53.62815 9.99814 45 ft 12 kts 279°
2026-04-26 09:45 53.62900 9.99712 45 ft 28 kts 332°
2026-04-26 09:45 53.63263 9.99393 47 ft 92 kts 333°
2026-04-26 09:45 53.64005 9.98751 52 ft 145 kts 332°
2026-04-26 09:46 53.64994 9.97895 369 ft 162 kts 333°
2026-04-26 09:46 53.65999 9.97030 1081 ft 162 kts 333°
2026-04-26 09:46 53.67008 9.96175 1788 ft 163 kts 333°
2026-04-26 09:46 53.68063 9.95277 2202 ft 181 kts 333°
2026-04-26 09:47 53.69261 9.94255 2575 ft 203 kts 333°
2026-04-26 09:47 53.70551 9.93065 3066 ft 217 kts 322°
2026-04-26 09:47 53.71388 9.90988 3868 ft 220 kts 285°
2026-04-26 09:47 53.71353 9.88304 4348 ft 245 kts 256°
2026-04-26 09:48 53.70832 9.85447 5100 ft 261 kts 252°
2026-04-26 09:48 53.70229 9.82527 6044 ft 266 kts 252°
2026-04-26 09:48 53.69609 9.79590 6969 ft 271 kts 253°
2026-04-26 09:48 53.68976 9.76569 7823 ft 275 kts 254°
2026-04-26 09:49 53.68349 9.73510 8738 ft 278 kts 255°
2026-04-26 09:49 53.67599 9.70588 9597 ft 287 kts 240°
2026-04-26 09:49 53.66166 9.68178 10415 ft 299 kts 219°
2026-04-26 09:49 53.64399 9.66135 10805 ft 319 kts 218°
2026-04-26 09:50 53.62482 9.63961 11036 ft 342 kts 217°
2026-04-26 09:50 53.60486 9.61718 11575 ft 351 kts 217°
2026-04-26 09:50 53.58416 9.59402 12261 ft 356 kts 217°
2026-04-26 09:50 53.56350 9.57102 12970 ft 359 kts 217°
2026-04-26 09:51 53.54263 9.54773 13699 ft 363 kts 217°
2026-04-26 09:51 53.52156 9.52411 14393 ft 366 kts 218°
2026-04-26 09:51 53.50047 9.50037 15028 ft 369 kts 218°
2026-04-26 09:51 53.47907 9.47632 15671 ft 372 kts 218°
2026-04-26 09:52 53.45746 9.45212 16318 ft 374 kts 218°
2026-04-26 09:52 53.41381 9.40324 17592 ft 379 kts 218°
2026-04-26 09:52 53.39184 9.37860 18257 ft 381 kts 218°
2026-04-26 09:53 53.36982 9.35397 18884 ft 384 kts 217°
2026-04-26 09:53 53.34752 9.32908 19471 ft 386 kts 217°
2026-04-26 09:53 53.32505 9.30417 20070 ft 389 kts 217°
2026-04-26 09:53 53.30242 9.27906 20668 ft 392 kts 217°
2026-04-26 09:54 53.27963 9.25383 21252 ft 395 kts 217°
2026-04-26 09:54 53.25665 9.22845 21828 ft 397 kts 217°
2026-04-26 09:54 53.23352 9.20296 22376 ft 400 kts 217°
2026-04-26 09:54 53.21021 9.17723 22909 ft 403 kts 217°
2026-04-26 09:55 53.18680 9.15137 23445 ft 405 kts 217°
2026-04-26 09:55 53.16321 9.12538 23968 ft 408 kts 217°
2026-04-26 09:55 53.13947 9.09927 24395 ft 410 kts 217°
2026-04-26 09:55 53.11561 9.07306 24839 ft 412 kts 217°
2026-04-26 09:56 53.09160 9.04669 25262 ft 414 kts 217°
2026-04-26 09:56 53.06750 9.02024 25694 ft 416 kts 217°
2026-04-26 09:56 53.04337 8.99375 26110 ft 417 kts 217°
2026-04-26 09:56 53.01909 8.96711 26522 ft 419 kts 217°
2026-04-26 09:57 52.99468 8.94042 26922 ft 421 kts 217°
2026-04-26 09:57 52.97015 8.91370 27320 ft 423 kts 216°
2026-04-26 09:57 52.94586 8.88726 27705 ft 424 kts 216°
2026-04-26 09:57 52.92078 8.86000 28104 ft 426 kts 216°
2026-04-26 09:58 52.89589 8.83301 28490 ft 428 kts 216°
2026-04-26 09:58 52.87089 8.80595 28867 ft 430 kts 216°
2026-04-26 09:58 52.84608 8.77912 29237 ft 432 kts 216°
2026-04-26 09:58 52.82085 8.75187 29594 ft 434 kts 216°
2026-04-26 09:59 52.79548 8.72449 29956 ft 436 kts 216°
2026-04-26 09:59 52.77017 8.69664 30307 ft 438 kts 217°
2026-04-26 09:59 52.74503 8.66809 30669 ft 438 kts 218°
2026-04-26 09:59 52.72009 8.63924 31109 ft 436 kts 218°
2026-04-26 10:00 52.69534 8.61045 31560 ft 434 kts 218°
2026-04-26 10:00 52.67087 8.58203 32011 ft 433 kts 218°
2026-04-26 10:00 52.64614 8.55349 32472 ft 431 kts 217°
2026-04-26 10:00 52.62152 8.52531 32939 ft 429 kts 217°
2026-04-26 10:01 52.59691 8.49729 33402 ft 427 kts 217°
2026-04-26 10:01 52.57269 8.46975 33876 ft 426 kts 217°
2026-04-26 10:01 52.54827 8.44202 34341 ft 424 kts 217°
2026-04-26 10:01 52.52403 8.41454 34728 ft 423 kts 217°
2026-04-26 10:02 52.49999 8.38728 35072 ft 423 kts 217°
2026-04-26 10:02 52.47585 8.35992 35379 ft 423 kts 217°
2026-04-26 10:02 52.45161 8.33251 35688 ft 423 kts 217°
2026-04-26 10:02 52.42735 8.30509 35977 ft 424 kts 217°
2026-04-26 10:03 52.40286 8.27752 36245 ft 425 kts 217°
2026-04-26 10:03 52.37858 8.25028 36337 ft 427 kts 217°
2026-04-26 10:03 52.32924 8.19497 36346 ft 430 kts 217°
2026-04-26 10:04 52.28007 8.13986 36346 ft 431 kts 217°
2026-04-26 10:04 52.23055 8.08459 36347 ft 431 kts 216°
2026-04-26 10:05 52.18095 8.02944 36350 ft 432 kts 216°
2026-04-26 10:05 52.13124 7.97416 36350 ft 432 kts 216°
2026-04-26 10:06 52.08159 7.91906 36351 ft 432 kts 216°
2026-04-26 10:06 52.03181 7.86400 36351 ft 433 kts 216°
2026-04-26 10:07 51.98193 7.80912 36352 ft 433 kts 216°
2026-04-26 10:07 51.93228 7.75457 36353 ft 434 kts 216°
2026-04-26 10:08 51.88223 7.69977 36350 ft 435 kts 216°
2026-04-26 10:08 51.83176 7.64465 36347 ft 435 kts 216°
2026-04-26 10:09 51.78166 7.59007 36338 ft 435 kts 216°
2026-04-26 10:09 51.73164 7.53572 36335 ft 436 kts 216°
2026-04-26 10:10 51.68111 7.48094 36343 ft 436 kts 216°
2026-04-26 10:10 51.63064 7.42634 36336 ft 437 kts 216°
2026-04-26 10:11 51.58044 7.37217 36322 ft 437 kts 216°
2026-04-26 10:11 51.52984 7.31782 36337 ft 438 kts 216°
2026-04-26 10:12 51.47914 7.26359 36335 ft 438 kts 216°
2026-04-26 10:12 51.42840 7.20932 36326 ft 438 kts 216°
2026-04-26 10:13 51.37748 7.15499 36334 ft 439 kts 216°
2026-04-26 10:13 51.32657 7.10077 36336 ft 439 kts 216°
2026-04-26 10:14 51.27564 7.04676 36323 ft 439 kts 216°
2026-04-26 10:14 51.22461 6.99285 36328 ft 440 kts 216°
2026-04-26 10:15 51.17356 6.93901 36333 ft 440 kts 216°
2026-04-26 10:15 51.12235 6.88511 36323 ft 440 kts 216°
2026-04-26 10:16 51.07125 6.83148 36327 ft 440 kts 216°
2026-04-26 10:16 51.02042 6.77828 36322 ft 441 kts 216°
2026-04-26 10:17 50.96913 6.72474 36330 ft 441 kts 216°
2026-04-26 10:17 50.91769 6.67131 36330 ft 442 kts 216°
2026-04-26 10:18 50.86624 6.61794 36329 ft 442 kts 216°
2026-04-26 10:18 50.81480 6.56474 36331 ft 442 kts 216°
2026-04-26 10:19 50.76333 6.51149 36328 ft 442 kts 216°
2026-04-26 10:19 50.71186 6.45843 36324 ft 442 kts 216°
2026-04-26 10:20 50.66895 6.41437 36314 ft 442 kts 216°
2026-04-26 10:20 50.60859 6.35263 36304 ft 442 kts 216°
2026-04-26 10:21 50.55691 6.29987 36288 ft 442 kts 216°
2026-04-26 10:21 50.50532 6.24723 36285 ft 442 kts 216°
2026-04-26 10:22 50.45360 6.19471 36282 ft 443 kts 216°
2026-04-26 10:22 50.40188 6.14246 36281 ft 443 kts 215°
2026-04-26 10:23 50.35885 6.09903 36279 ft 443 kts 216°
2026-04-26 10:23 50.29868 6.03828 36280 ft 443 kts 215°
2026-04-26 10:24 50.24692 5.98617 36280 ft 443 kts 215°
2026-04-26 10:24 50.20352 5.94262 36282 ft 443 kts 215°
2026-04-26 10:25 50.15165 5.89080 36277 ft 443 kts 215°
2026-04-26 10:25 50.09978 5.83912 36278 ft 443 kts 215°
2026-04-26 10:26 50.04790 5.78750 36276 ft 442 kts 215°
2026-04-26 10:26 49.99633 5.73628 36270 ft 442 kts 215°
2026-04-26 10:27 49.94446 5.68487 36271 ft 442 kts 215°
2026-04-26 10:27 49.89245 5.63334 36260 ft 442 kts 215°
2026-04-26 10:28 49.84050 5.58210 36262 ft 442 kts 215°
2026-04-26 10:28 49.78867 5.53127 36263 ft 443 kts 215°
2026-04-26 10:29 49.73661 5.48035 36260 ft 443 kts 215°
2026-04-26 10:29 49.68422 5.42921 36090 ft 453 kts 215°
2026-04-26 10:30 49.65860 5.40036 35833 ft 457 kts 224°
2026-04-26 10:30 49.63652 5.36512 35577 ft 457 kts 234°
2026-04-26 10:30 49.61875 5.32464 35321 ft 455 kts 244°
2026-04-26 10:30 49.60579 5.28033 35084 ft 453 kts 253°
2026-04-26 10:31 49.59704 5.23380 34845 ft 450 kts 260°
2026-04-26 10:31 49.59239 5.18670 34354 ft 441 kts 268°
2026-04-26 10:31 49.59190 5.13970 33557 ft 438 kts 273°
2026-04-26 10:31 49.59240 5.09262 32765 ft 437 kts 273°
2026-04-26 10:32 49.59290 5.04600 31989 ft 436 kts 273°
2026-04-26 10:32 49.59335 4.99909 31036 ft 439 kts 273°
2026-04-26 10:32 49.59372 4.95216 30407 ft 435 kts 273°
2026-04-26 10:32 49.59402 4.90647 29787 ft 429 kts 273°
2026-04-26 10:33 49.59428 4.86091 29228 ft 423 kts 273°
2026-04-26 10:33 49.59452 4.81533 28655 ft 416 kts 273°
2026-04-26 10:33 49.59477 4.77155 28132 ft 411 kts 273°
2026-04-26 10:33 49.59505 4.72792 27689 ft 403 kts 273°
2026-04-26 10:34 49.59530 4.68504 27293 ft 398 kts 273°
2026-04-26 10:34 49.59554 4.64253 26875 ft 395 kts 273°
2026-04-26 10:34 49.59573 4.59969 26456 ft 393 kts 273°
2026-04-26 10:34 49.59584 4.55775 26042 ft 391 kts 273°
2026-04-26 10:35 49.59594 4.51616 25636 ft 388 kts 273°
2026-04-26 10:35 49.59605 4.47464 25227 ft 386 kts 273°
2026-04-26 10:35 49.59616 4.43384 24824 ft 384 kts 273°
2026-04-26 10:35 49.59627 4.39254 24419 ft 382 kts 273°
2026-04-26 10:36 49.59637 4.35173 24017 ft 380 kts 273°
2026-04-26 10:36 49.59643 4.31113 23579 ft 378 kts 273°
2026-04-26 10:36 49.59646 4.27071 23175 ft 376 kts 272°
2026-04-26 10:36 49.59651 4.23051 22777 ft 374 kts 272°
2026-04-26 10:37 49.59657 4.19054 22386 ft 372 kts 272°
2026-04-26 10:37 49.59659 4.15089 21995 ft 370 kts 272°
2026-04-26 10:37 49.59626 4.11162 21604 ft 369 kts 268°
2026-04-26 10:37 49.59192 4.07253 21216 ft 370 kts 256°
2026-04-26 10:38 49.58261 4.03566 20822 ft 372 kts 245°
2026-04-26 10:38 49.56911 4.00168 20431 ft 372 kts 239°
2026-04-26 10:38 49.55507 3.96852 20035 ft 370 kts 240°
2026-04-26 10:38 49.54114 3.93540 19644 ft 368 kts 240°
2026-04-26 10:39 49.52721 3.90222 19249 ft 366 kts 239°
2026-04-26 10:39 49.51352 3.86971 18873 ft 364 kts 239°
2026-04-26 10:39 49.49977 3.83721 18472 ft 362 kts 239°
2026-04-26 10:39 49.48607 3.80484 18062 ft 360 kts 240°
2026-04-26 10:40 49.47463 3.77096 17684 ft 356 kts 250°
2026-04-26 10:40 49.46743 3.73473 17310 ft 353 kts 257°
2026-04-26 10:40 49.46130 3.69811 16933 ft 351 kts 257°
2026-04-26 10:40 49.45513 3.66182 16563 ft 350 kts 257°
2026-04-26 10:41 49.44907 3.62612 16192 ft 349 kts 257°
2026-04-26 10:41 49.44300 3.59017 15824 ft 347 kts 257°
2026-04-26 10:41 49.43692 3.55427 15489 ft 346 kts 257°
2026-04-26 10:41 49.43083 3.51847 15174 ft 346 kts 256°
2026-04-26 10:42 49.42474 3.48278 14855 ft 344 kts 256°
2026-04-26 10:42 49.41824 3.44753 14547 ft 344 kts 252°
2026-04-26 10:42 49.40930 3.41328 14230 ft 343 kts 249°
2026-04-26 10:42 49.40036 3.37990 13915 ft 342 kts 249°
2026-04-26 10:43 49.39133 3.34617 13566 ft 341 kts 249°
2026-04-26 10:43 49.38230 3.31256 13219 ft 339 kts 249°
2026-04-26 10:43 49.37333 3.27916 12874 ft 337 kts 249°
2026-04-26 10:43 49.36445 3.24604 12548 ft 335 kts 249°
2026-04-26 10:44 49.35559 3.21301 12219 ft 334 kts 249°
2026-04-26 10:44 49.34676 3.18018 11889 ft 332 kts 249°
2026-04-26 10:44 49.33797 3.14753 11564 ft 331 kts 249°
2026-04-26 10:44 49.32921 3.11500 11252 ft 329 kts 249°
2026-04-26 10:45 49.32041 3.08252 10929 ft 328 kts 249°
2026-04-26 10:45 49.31172 3.05062 10612 ft 326 kts 248°
2026-04-26 10:45 49.30298 3.01849 10291 ft 324 kts 248°
2026-04-26 10:45 49.29433 2.98668 9968 ft 319 kts 249°
2026-04-26 10:46 49.28592 2.95583 9621 ft 314 kts 248°
2026-04-26 10:46 49.27762 2.92537 9281 ft 310 kts 248°
2026-04-26 10:46 49.26934 2.89496 8931 ft 305 kts 248°
2026-04-26 10:46 49.26126 2.86531 8611 ft 302 kts 248°
2026-04-26 10:47 49.25321 2.83573 8288 ft 299 kts 248°
2026-04-26 10:47 49.24584 2.80864 7990 ft 297 kts 248°
2026-04-26 10:47 49.23793 2.77983 7667 ft 294 kts 248°
2026-04-26 10:47 49.22998 2.75096 7345 ft 293 kts 248°
2026-04-26 10:48 49.22208 2.72231 7030 ft 291 kts 248°
2026-04-26 10:48 49.21427 2.69388 6714 ft 290 kts 248°
2026-04-26 10:48 49.20658 2.66597 6382 ft 278 kts 247°
2026-04-26 10:48 49.19915 2.63909 6191 ft 274 kts 247°
2026-04-26 10:49 49.19170 2.61220 6059 ft 275 kts 247°
2026-04-26 10:49 49.18449 2.58511 5941 ft 274 kts 252°
2026-04-26 10:49 49.18074 2.55676 5809 ft 273 kts 266°
2026-04-26 10:49 49.18011 2.52779 5684 ft 272 kts 269°
2026-04-26 10:50 49.17952 2.49884 5560 ft 272 kts 268°
2026-04-26 10:50 49.17911 2.47972 5476 ft 272 kts 268°
2026-04-26 10:50 49.17824 2.44113 5308 ft 272 kts 268°
2026-04-26 10:50 49.17749 2.41228 5182 ft 272 kts 265°
2026-04-26 10:51 49.17321 2.38424 5056 ft 272 kts 248°
2026-04-26 10:51 49.15013 2.34002 4799 ft 270 kts 216°
2026-04-26 10:51 49.13495 2.32293 4672 ft 270 kts 216°
2026-04-26 10:52 49.11991 2.30587 4542 ft 269 kts 216°
2026-04-26 10:52 49.10495 2.28881 4415 ft 266 kts 216°
2026-04-26 10:52 49.09027 2.27208 4283 ft 261 kts 216°
2026-04-26 10:52 49.07599 2.25576 4154 ft 252 kts 216°
2026-04-26 10:53 49.06219 2.24002 4048 ft 246 kts 215°
2026-04-26 10:53 49.04858 2.22479 4003 ft 238 kts 211°
2026-04-26 10:53 49.03347 2.21797 3995 ft 221 kts 174°
2026-04-26 10:54 49.01172 2.24111 3990 ft 181 kts 111°
2026-04-26 10:54 49.00997 2.25852 3862 ft 160 kts 85°
2026-04-26 10:54 49.01091 2.27477 3683 ft 145 kts 85°
2026-04-26 10:54 49.01174 2.28962 3513 ft 141 kts 85°
2026-04-26 10:55 49.01257 2.30448 3326 ft 140 kts 85°
2026-04-26 10:55 49.01341 2.31952 3140 ft 139 kts 84°
2026-04-26 10:55 49.01423 2.33418 2953 ft 138 kts 85°
2026-04-26 10:55 49.01476 2.34382 2832 ft 138 kts 85°
2026-04-26 10:56 49.01585 2.36321 2606 ft 138 kts 86°
2026-04-26 10:56 49.01665 2.37772 2409 ft 137 kts 84°
2026-04-26 10:56 49.01745 2.39226 2241 ft 138 kts 83°
2026-04-26 10:56 49.01825 2.40666 2031 ft 135 kts 83°
2026-04-26 10:57 49.01904 2.42089 1839 ft 133 kts 84°
2026-04-26 10:57 49.01982 2.43522 1669 ft 135 kts 84°
2026-04-26 10:57 49.02060 2.44928 1481 ft 134 kts 84°
2026-04-26 10:57 49.02137 2.46337 1303 ft 133 kts 83°
2026-04-26 10:58 49.02214 2.47753 1079 ft 134 kts 84°
2026-04-26 10:58 49.02291 2.49157 866 ft 132 kts 83°
2026-04-26 10:58 49.02380 2.50532 596 ft 129 kts 85°
2026-04-26 10:58 49.02445 2.51902 460 ft 130 kts 84°
2026-04-26 10:59 49.02518 2.53265 357 ft 124 kts 85°
2026-04-26 10:59 49.02565 2.54215 363 ft 40 kts 83°
2026-04-26 10:59 49.02539 2.54601 355 ft 37 kts 106°
2026-04-26 10:59 49.02491 2.54869 359 ft 3 kts 104°
2026-04-26 11:00 49.02482 2.54925 355 ft 7 kts 104°
2026-04-26 11:00 49.02465 2.55015 355 ft 11 kts 107°
2026-04-26 11:00 49.02446 2.55140 359 ft 14 kts 94°
2026-04-26 11:00 49.02453 2.55301 361 ft 17 kts 85°
2026-04-26 11:01 49.02462 2.55493 361 ft 19 kts 91°
2026-04-26 11:01 49.02369 2.55615 355 ft 20 kts 175°
2026-04-26 11:01 49.02218 2.55637 355 ft 23 kts 175°
2026-04-26 11:01 49.02048 2.55659 357 ft 26 kts 174°
2026-04-26 11:02 49.01903 2.55631 359 ft 18 kts 235°
2026-04-26 11:02 49.01876 2.55433 358 ft 20 kts 269°
2026-04-26 11:02 49.01867 2.55222 358 ft 10 kts 268°
2026-04-26 11:02 49.01866 2.55192 360 ft 3 kts 265°
2026-04-26 11:03 49.01859 2.55064 359 ft 10 kts 265°
2026-04-26 11:03 49.01853 2.54965 355 ft 11 kts 266°
2026-04-26 11:03 49.01814 2.54869 357 ft 13 kts 202°
2026-04-26 11:03 49.01712 2.54873 359 ft 17 kts 172°
2026-04-26 11:04 49.01581 2.54895 357 ft 20 kts 174°
2026-04-26 11:04 49.01430 2.54915 355 ft 23 kts 169°
2026-04-26 11:04 49.01263 2.54983 360 ft 26 kts 163°
2026-04-26 11:04 49.01140 2.55031 359 ft 0 kts 166°